Location: Palomar Mountain Lodge
(33.3110°N, 116.8495°W)
Time: 18:46:37
(UTC-07:00)

Daily predictions for brighter satellites

Satellite Brightness Start Highest point End
(mag) Time Altitude Azimuth Time Altitude Azimuth Time Altitude Azimuth
Cosmos 1805 Rocket 3.7 19:43:13 10° N 19:47:27 52° E 19:51:39 10° SSE
Cosmos 1939 Rocket 4.4 19:48:29 10° ESE 19:51:06 18° ENE 19:53:43 10° NNE
Envisat 3.3 19:47:46 10° SE 19:52:35 46° ENE 19:57:25 10° N
ERS-2 3.2 19:50:53 10° SE 19:54:00 27° ENE 19:57:08 10° NNE
Cosmos 1980 4.2 19:48:54 10° S 19:54:01 37° ESE 19:59:10 10° NE
Cosmos 1455 2.8 19:55:29 10° SSE 19:58:57 34° E 20:02:27 10° NNE
Cosmos 2251 Rocket 3.7 19:54:38 10° N 19:59:56 58° ENE 20:05:10 10° SSE
NOSS 3 (A) 4.4 19:59:19 10° SSW 20:02:02 56° ESE 20:04:48 10° NE
YAOGAN 6 3.8 19:59:22 10° SE 20:02:18 24° ENE 20:05:17 10° NNE
SL-8 R/B 4.1 19:59:09 10° WSW 20:03:54 68° NW 20:08:40 10° NE
Meteor 2-15 4.5 19:57:54 10° N 20:03:58 64° E 20:09:59 10° SSE
CZ-2D R/B 3.2 20:01:19 10° SSE 20:05:03 61° ENE 20:08:49 10° N
Resurs 01 Rocket 2.7 20:03:09 10° SE 20:06:51 26° ENE 20:10:32 10° NNE
Cosmos 2333 Rocket 2.2 20:01:32 10° SSW 20:07:11 84° ESE 20:12:51 10° NNE
Cosmos 2154 Rocket 4.0 20:01:07 10° S 20:07:22 78° E 20:13:35 10° N
Cosmos 1844 Rocket 2.7 20:04:07 10° NNW 20:09:47 76° ENE 20:15:25 10° SSE
Meteor 2-21 4.5 20:05:24 10° S 20:11:31 88° E 20:17:42 10° N
Cosmos 1892 2.9 20:08:12 10° N 20:11:59 51° E 20:15:44 10° SSE
COSMOS 2428 3.8 20:06:51 10° SW 20:12:22 49° WNW 20:17:54 10° N
OAO 2 Rocket 3.4 20:08:38 10° WNW 20:13:53 81° SSW 20:18:01 16° ESE
HJ-1C 3.8 20:10:47 10° S 20:14:05 65° W 20:17:25 10° NNW
Meteor 1-27 4.3 20:09:46 10° S 20:15:25 62° E 20:21:00 10° NNE
Cosmos 2219 Rocket 2.7 20:11:43 10° SSW 20:17:20 66° WNW 20:22:57 10° NNE
NOSS 0 Rocket 3.9 20:14:00 10° SSW 20:20:07 77° ESE 20:26:19 10° NNE
Cosmos 1844 3.7 20:14:26 10° NNW 20:20:08 72° ENE 20:25:52 10° SSE
Cosmos 2237 Rocket 2.2 20:15:30 10° S 20:20:59 60° ESE 20:26:31 10° NNE
Centaur D-1A AC-31 3.3 19:54:06 10° WSW 20:21:16 40° S 20:25:38 17° ESE
deb Centaur AC-2 4.4 20:18:24 10° W 20:22:35 51° S 20:25:32 20° ESE
Genesis I 4.3 20:18:57 10° N 20:22:37 31° NE 20:24:40 20° ESE
Sakura Rocket 3.5 20:17:49 10° WSW 20:22:50 47° S 20:25:21 20° ESE
Cosmos 220 Rocket 4.4 20:21:37 10° N 20:25:44 43° ENE 20:28:19 20° SE
Aureole 2 4.2 20:24:40 10° SSW 20:27:46 74° WNW 20:30:41 10° NNE
Cosmos 1666 Rocket 3.6 20:23:53 10° N 20:28:22 84° W 20:32:47 10° S
Cosmos 1151 Rocket 3.2 20:24:46 10° SSE 20:28:50 47° E 20:32:57 10° NNE
OAO 3 Copernicus 4.3 20:24:25 10° WSW 20:29:22 63° SSE 20:33:07 17° E
Cosmos 962 Rocket 4.4 20:24:30 10° S 20:30:36 84° E 20:36:46 10° N
Cosmos 2341 Rocket 4.0 20:26:03 10° S 20:32:24 83° E 20:38:45 10° N
Thor Agena Rocket 3.8 20:28:14 10° N 20:33:28 74° WNW 20:38:44 10° SSW
Cosmos 1933 Rocket 4.2 20:30:22 10° NNE 20:34:21 34° E 20:35:57 25° ESE
USA 186 0.6 20:34:33 47° SSE 20:35:03 89° E 20:37:18 10° N
Cosmos 2278 Rocket 2.8 20:29:55 10° N 20:35:11 38° ENE 20:38:03 23° ESE
Spot 2 Rocket 3.9 20:32:05 19° SE 20:35:20 44° ENE 20:40:08 10° N
Cosmos 2218 Rocket 4.3 20:29:33 10° SSE 20:35:30 45° E 20:41:31 10° NNE
Sich 1 3.5 20:31:25 10° NNW 20:35:37 59° W 20:39:47 10° S
Cosmos 1295 Rocket 4.5 20:30:04 10° S 20:36:24 86° E 20:42:44 10° N
Resurs 1-3 3.6 20:34:07 17° SSE 20:37:22 63° ENE 20:41:42 10° N
SL-24 R/B - RUBIN 2 4.2 20:34:45 10° NW 20:38:57 52° WSW 20:42:41 13° S
ATLAS 2A CENTAUR R/B 3.8 20:35:29 10° WSW 20:39:20 19° SW 20:40:33 15° S
ATLAS 2AS CENTAUR R/B 3.0 20:31:44 10° NNW 20:39:29 64° ENE 20:44:15 22° SE
ASTRO E2 3.0 20:39:51 10° WSW 20:43:41 45° SSE 20:44:45 36° SE
Cosmos 2366 rocket 4.2 20:39:32 10° SSE 20:45:26 48° E 20:51:25 10° NNE
Cosmos 1825 2.7 20:44:12 10° NNE 20:47:43 36° E 20:47:58 36° E
SL-8 Rocket 3.9 20:47:32 10° S 20:53:49 80° E 21:00:07 10° N
Cosmos 1633 Rocket 4.2 20:55:14 10° NNW 20:59:19 42° W 21:03:25 10° SSW
Cosmos 1515 Rocket 4.4 21:02:50 10° SSW 21:07:10 52° W 21:11:31 10° N
ERS-1 Rocket 4.2 21:10:03 25° ENE 21:10:03 25° ENE 21:13:46 10° NNE
ARGOS 3.6 21:10:53 38° E 21:11:27 39° ENE 21:16:23 10° N
SL-16 R/B 2.1 21:06:26 10° S 21:12:00 65° ESE 21:17:36 10° NNE
Cosmos 2228 Rocket 4.4 21:13:52 10° SSW 21:17:56 38° W 21:22:02 10° N
Cosmos 407 Rocket 4.1 21:13:15 10° N 21:17:56 38° ENE 21:17:56 38° ENE
Meteor 2-10 Rocket 3.6 21:17:22 24° S 21:20:55 85° E 21:26:45 10° N
USA 267 4.0 21:14:49 10° ENE 21:23:21 31° S 21:27:01 10° SSW
Cosmos 1408 3.2 21:19:45 10° NNW 21:23:21 53° W 21:23:34 52° WSW
USA 81 4.3 21:18:35 10° N 21:23:28 48° ENE 21:23:28 48° ENE
Cosmos 1869 4.0 21:23:04 32° SW 21:24:36 53° W 21:28:32 10° N
Cosmos 864 Rocket 4.4 21:19:24 14° S 21:24:47 81° W 21:30:56 10° N
H-2A R/B 2.6 21:26:30 39° ENE 21:26:30 39° ENE 21:30:39 10° N
Resurs 01 Rocket 3.8 21:40:41 14° SW 21:43:14 22° W 21:46:40 10° NW
Cosmos 1452 Rocket 4.5 21:49:32 36° NNE 21:49:32 36° NNE 21:52:39 10° NNE
Cosmos 2344 3.4 21:40:35 10° SSW 21:48:19 80° ESE 21:56:16 10° NNE
Cosmos 2297 3.8 21:43:23 10° NNW 21:48:36 61° NE 21:48:36 61° NE
MetOp-A 4.1 21:52:58 80° W 21:52:58 80° W 21:58:15 10° NNW
Cosmos 2369 Rocket 4.4 21:50:41 10° NNE 21:52:10 12° NE 21:52:10 12° NE
SPOT 5 4.4 21:56:16 24° NNE 21:56:16 24° NNE 21:58:17 10° N
Cosmos 1821 Rocket 4.1 22:06:44 64° NE 22:06:44 64° NE 22:12:07 10° N
Cosmos 1727 Rocket 4.4 22:02:45 10° NNW 22:08:44 55° W 22:09:41 50° WSW
ATLAS 5 CENTAUR R/B 4.4 22:13:49 10° N 22:17:12 17° NE 22:17:12 17° NE
Cosmos 2278 Rocket 3.9 22:14:34 10° NW 22:18:57 23° W 22:19:55 22° WSW
ATLAS 2AS CENTAUR R/B 4.5 22:24:12 10° WNW 22:29:40 22° WSW 22:31:43 20° SW
ATLAS 2A CENTAUR R/B 4.0 22:38:10 10° WSW 22:50:45 48° SW 22:50:45 48° SW
CZ-4C R/B 3.9 23:00:47 27° NNW 23:00:47 27° NNW 23:04:02 10° NNE
Cosmos 1943 Rocket 4.3 22:57:01 10° N 22:58:56 20° NNE 22:58:56 20° NNE
USA 267 4.0 22:57:43 10° NNE 23:03:53 47° NW 23:05:27 40° WNW
H-2A R/B 4.5 23:07:08 16° WNW 23:07:08 16° WNW 23:08:54 10° NW
Terra 4.4 23:10:21 17° NNW 23:10:21 17° NNW 23:11:29 10° NNW
Cosmos 2369 Rocket 4.3 23:32:06 10° NNW 23:33:58 22° NNW 23:33:58 22° NNW
